Regional Weather Roundup
Issued by NWS

Home | Current Version | Previous Version | Text Only | Print | Product List | Glossary Off
Versions: 1 2 3 4 5 6 7 8 9 10 11 12 13 14 15 16 17 18 19 20 21 22 23 24 25 26 27 28 29 30 31 32 33 34 35 36 37 38 39 40 41 42 43 44 45 46 47 48 49 50

000
ASUS43 KIND 050259
RWRIN

WEATHER ROUNDUP FOR INDIANA
NATIONAL WEATHER SERVICE INDIANAPOLIS IN
1100 PM EDT WED MAY 04 2016

NOTE: "FAIR" INDICATES FEW OR NO CLOUDS BELOW 12,000 FEET WITH NO
SIGNIFICANT WEATHER AND/OR OBSTRUCTIONS TO VISIBILITY.

* - STATION DOES NOT REPORT WEATHER SUCH AS PRECIPITATION OR FOG.

+ - STATION NOT QUALITY CONTROLLED BY THE NATIONAL WEATHER SERVICE.
    USE DATA WITH CAUTION...ESPECIALLY DEWPOINT AND RELATIVE
    HUMIDITY OBSERVATIONS.

INZ001>003-010>013-019-020-050400-
NORTHWEST INDIANA

CITY           SKY/WX    TMP DP  RH WIND       PRES   REMARKS
GARY /AIRPORT/ MOCLDY    45  41  87 N17G35    29.87R
RENSSELAER +   CLOUDY    43  37  81 N14       29.84S

$$

LMZ046-743>745-050400-
SOUTHERN LAKE MICHIGAN

STATION/POSITION TIME  TEMP    WIND        PRES    WAVE
                       AIR SEA DIR/SP/G            HT
                 (UTC) (F)     (DEG/KT/KT) (MB)    (FT)
BURNS HARBOR     0200   43      10/ 21/ 25 1010.8S
MICHIGAN CITY    0200   42     340/ 35/ 38   N/A

$$

INZ004-005-014>016-021>024-050400-
NORTH CENTRAL INDIANA

CITY           SKY/WX    TMP DP  RH WIND       PRES   REMARKS
GOSHEN         LGT RAIN  40  38  93 NW13      29.72S FOG
SOUTH BEND     CLOUDY    40  38  93 N26G33    29.76S

$$

INZ006>009-017-018-025>027-050400-
NORTHEAST INDIANA

CITY           SKY/WX    TMP DP  RH WIND       PRES   REMARKS
ANGOLA *+        N/A     39  36  87 W3        29.70R
FORT WAYNE     CLOUDY    39  37  92 NW8       29.74R

$$

INZ028-029-035-036-043>045-051>053-050400-
WEST CENTRAL INDIANA

CITY           SKY/WX    TMP DP  RH WIND       PRES   REMARKS
CRAWFORDSVL +  CLOUDY    43  40  91 NW9       29.82S
GREENCASTLE +  CLOUDY    45  41  87 NW5       29.82S
LAFAYETTE      CLOUDY    44  37  76 N12       29.83R
TERRE HAUTE    CLOUDY    50  38  63 N3        29.83S

$$

INZ030>032-037>040-046>048-054>057-064-065-050400-
CENTRAL INDIANA

CITY           SKY/WX    TMP DP  RH WIND       PRES   REMARKS
INDIANAPOLIS   LGT RAIN  45  37  73 NW13      29.79F
-EAGLE CREEK   LGT RAIN  46  38  73 NW14      29.79S
KOKOMO *+      CLOUDY    41  36  81 NW20G25   29.76F
SHELBYVILLE    LGT RAIN  47  37  68 NW17      29.78F

$$

INZ033-034-041-042-049-050-058-059-050400-
EAST CENTRAL INDIANA

CITY           SKY/WX    TMP DP  RH WIND       PRES   REMARKS
MUNCIE         LGT RAIN  42  37  82 NW17G24   29.75S

$$

INZ060-061-067>069-081>083-085>088-050400-
SOUTHWEST INDIANA

CITY           SKY/WX    TMP DP  RH WIND       PRES   REMARKS
EVANSVILLE     MOCLDY    53  40  61 NW6       29.87R
HUNTINGBURG *+ MOCLDY    50  37  62 N7        29.85R

$$

INZ062-063-066-070>080-084-089>092-050400-
SOUTH CENTRAL AND SOUTHEAST INDIANA

CITY           SKY/WX    TMP DP  RH WIND       PRES   REMARKS
BLOOMINGTON    CLOUDY    48  39  71 VRB5      29.82S
MADISON *+     PTCLDY    46  36  66 NW6       29.82R
SEYMOUR +      PTCLDY    50  39  66 NW10      29.82R

$$





USA.gov is the U.S. government's official web portal to all federal, state and local government web resources and services.